AirNav   Everest Fuels
 
 607 users online  

1S9 Chewelah Municipal Airport
Chewelah, Washington, USA

GOING TO CHEWELAH?


FAA INFORMATION EFFECTIVE 09 SEPTEMBER 2021

Location

FAA Identifier: 1S9
Lat/Long: 48-18-50.2495N 117-44-36.3335W
48-18.837492N 117-44.605558W
48.3139582,-117.7434260
(estimated)
Elevation: 2084 ft. / 635 m (estimated)
Variation: 20E (1985)
Time zone: UTC -7 (UTC -8 during Standard Time)
Zip code: 99109

Airport Operations

Airport use: Open to the public
Activation date: 01/1979
Control tower: no
ARTCC: SEATTLE CENTER
FSS: SEATTLE FLIGHT SERVICE STATION
NOTAMs facility: SEA (NOTAM-D service available)
Attendance: UNATNDD
Wind indicator: lighted
Segmented circle: yes
Lights: ACTVT MIRL RY 17/35 - CTAF. PAPI RY 17 AND RY 35 OPER CONTINUOUSLY.
Beacon: white-green (lighted land airport)
Operates sunset to sunrise.

Airport Communications

CTAF: 122.9
WX AWOS-3 at 63S (15 nm N): 119.275 (509-684-8994)

Nearby radio navigation aids

NDB name  Hdg/Dist  Freq  Var  ID
DEER PARK313/24.336516EDPY -.. .--. -.--
IONE188/27.137921EION .. --- -.

Airport Services

Parking: tiedowns
Airframe service: MINOR
Powerplant service: MINOR
Bottled oxygen: NONE
Bulk oxygen: NONE

Runway Information

Runway 17/35

Dimensions: 3537 x 48 ft. / 1078 x 15 m
Surface: asphalt, in good condition
Runway edge lights: medium intensity
Runway edge markings: MARKINGS FADED.
RUNWAY 17  RUNWAY 35
Latitude: 48-19.124150N48-18.550833N
Longitude: 117-44.531783W117-44.679333W
Traffic pattern: rightleft
Displaced threshold: 230 ft.87 ft.
Markings: basic, in poor conditionbasic, in poor condition
Visual slope indicator: 2-light PAPI on right (4.00 degrees glide path)2-light PAPI on left (3.00 degrees glide path)
Obstructions: 11 ft. tree, 275 ft. from runway, 63 ft. right of centerline, 6:1 slope to clear
3 FT DITCH +1 FT TO +3 FT ROCKS & RD 56 FT FM THR; 77 FT L, +14 FT TREES 200 FT FM THR, AND 10 FT SIGN, 86 FT R, 53 FT FM THR.
none

Airport Ownership and Management from official FAA records

Ownership: Publicly-owned
Owner: CITY OF CHEWELAH
PO BOX 258
CHEWELAH, WA 99109
Phone 509-935-8311
Manager: TYRONE BRYANT
139 RICHMOND LANE
CHEWELAH, WA 99109
Phone (509) 936-0234

Airport Operational Statistics

Aircraft based on the field: 17
Single engine airplanes: 16
Multi engine airplanes: 1
    
Aircraft operations: avg 96/week *
60% local general aviation
40% transient general aviation
* for 12-month period ending 31 December 2018

Additional Remarks

ALL PATTERNS TO THE WEST.
DEER & WILDLIFE ON & INVOF ARPT.
FOR CD CTC SEATTLE ARTCC AT 253-351-3694.
LODGING & FOOD AVBL AT APRT.

Instrument Procedures

There are no published instrument procedures at 1S9.

Some nearby airports with instrument procedures:

KDEW - Deer Park Airport (24 nm SE)
KSFF - Felts Field Airport (41 nm SE)
KSKA - Fairchild Air Force Base (42 nm S)
KGEG - Spokane International Airport (43 nm S)
KSZT - Sandpoint Airport (47 nm E)
 
Loc | Ops | Rwys | IFR | FBO | Links
Com | Nav | Svcs | Stats | Notes
Area around 1S9 (Chewelah Municipal Airport)
 
Road maps at: MapQuest Bing Google
 
Aerial photo
WARNING: Photo may not be current or correct
Aerial photo of 1S9 (Chewelah Municipal Airport)
Photo by P.J. Reinders
Taken in September 2008

Do you have a better or more recent aerial photo of Chewelah Municipal Airport that you would like to share? If so, please send us your photo.

 
Sectional chart

 
Airport distance calculator
Flying to Chewelah Municipal Airport? Find the distance to fly.

From to 1S9

Sunrise and sunset
Times for 28-Sep-2021
 Local
(UTC-7)
 Zulu
(UTC)
Morning civil twilight06:1613:16
Sunrise06:4713:47
Sunset18:3601:36
Evening civil twilight19:0702:07

Current date and time
Zulu (UTC)  28-Sep-2021 11:23:42
Local (UTC-7)  28-Sep-2021 04:23:42
 
METAR
K63S 
14nm N 
281050Z AUTO 00000KT 10SM FEW015 BKN025 OVC033 10/09 A2984 RMK A01
KDEW 
24nm SE 
281053Z AUTO 17007KT 5SM -RA BR BKN009 OVC014 09/08 A2986 RMK AO2 SLP110 P0007 T00890078
TAF
KSFF 
42nm SE 
280553Z 2806/2906 21009KT 6SM -RA BR SCT010 BKN016 OVC025 TEMPO 2806/2807 5SM RA BR FM280900 22012G19KT P6SM -RA SCT007 OVC025 FM281300 22013G20KT P6SM VCSH SCT010 BKN025 FM281800 22014KT P6SM BKN040
KSKA 
42nm S 
280300Z 2803/2909 20012KT 9000 -SHRA OVC040 610809 QNH2983INS BECMG 2805/2806 21012G20KT 9000 -SHRA BKN030 OVC050 610809 QNH2986INS BECMG 2811/2812 22012G20KT 9999 NSW SCT030 BKN060 620706 QNH2988INS BECMG 2817/2818 22012G22KT 9999 VCSH BKN030 610706 QNH2995INS BECMG 2900/2901 18010KT 9999 NSW SCT030 BKN060 620704 QNH2999INS TX15/2821Z TN05/2812Z
KGEG 
43nm S 
280553Z 2806/2906 19010KT 5SM -RA BR SCT018 OVC035 FM280700 20014G20KT 6SM -RA BR BKN018 OVC025 FM280900 20017G25KT P6SM BKN020 FM281200 20013KT P6SM SCT008 OVC030 FM281700 22015G20KT P6SM SCT010 BKN040
KCOE 
50nm SE 
280559Z 2806/2906 22006KT P6SM -RA SCT015 BKN040 OVC060 FM280800 22009KT P6SM -RA OVC025 FM281600 19010KT P6SM VCSH SCT012 OVC035 FM282000 21012KT P6SM VCSH BKN040
NOTAMs
Click for the latest NOTAMs
NOTAMs are issued by the DoD/FAA and will open in a separate window not controlled by AirNav.

 

 
 

Would you like to see your business listed on this page?

 If your business provides an interesting product or service to pilots, flight crews, aircraft, or users of the Chewelah Municipal Airport, you should consider listing it here.  To start the listing process, click on the button below
 
Add a business
 

Other Pages about Chewelah Municipal Airport

Update a link
 
Copyright © AirNav, LLC. All rights reserved. Privacy Policy  Contact